Back to catalog

HEAD-3B

AliveCommunicationsLEO
NORAD 57627·PAYLOAD·🇨🇳 China

Launched Aug 14, 2023 from Xichang Satellite Launch Center

Loading…

Next Passes (next 24 hours)

TLE

FreshSource: Space-Track

Epoch: Sep 14, 2026, 10:05 UTC

1 57627U 23121B   26257.42016586  .00000374  00000-0  10647-3 0  9995
2 57627  45.0016 225.4487 0006137   0.1119 359.9739 14.61695824164727

Track HEAD-3B in real time with AllMySat

Download on the App Store